Weather History for West Palm Beach, FL

Change the Weather History Date:

Thursday, July 25, 2013

  Actual Average Record
Temperature  
Mean Temperature 86 °F 83 °F  
Max Temperature 94 °F 90 °F 98 °F (1940)
Min Temperature 78 °F 76 °F 66 °F (1940)
Degree Days  
Heating Degree Days 0 0  
Month to date heating degree days 0 0  
Since 1 June heating degree days 0 0  
Since 1 July heating degree days 0 0  
Cooling Degree Days 21 18  
Month to date cooling degree days 457 439  
Year to date cooling degree days 2131 2038  
Since 1 June cooling degree days 946 929  
Growing Degree Days 36 (Base 50)    
Moisture  
Dew Point 71 °F    
Average Humidity 64    
Maximum Humidity 79    
Minimum Humidity 49    
Precipitation  
Precipitation 0.00 in 0.18 in 2.10 in (1891)
Month to date precipitation 5.59 4.69  
Year to date precipitation 43.27 31.70  
Snow  
Snow 0.00 in - - ()
Month to date snowfall 0.0  
Since 1 June snowfall 0.0  
Since 1 July snowfall 0.0  
Snow Depth 0.00 in    
Sea Level Pressure  
Sea Level Pressure 29.97 in    
Wind  
Wind Speed 9 mph (WSW)    
Max Wind Speed 17 mph    
Max Gust Speed 21 mph    
Visibility 10 miles    
Events      
T = Trace of Precipitation, MM = Missing Value Source: NWS Daily Summary

Daily Weather History Graph

Daily Weather History Graph

Search for Another Location

Airport:

Trip Planner

Search our weather history database for the weather conditions in past years. The results will help you decide how hot, cold, wet, or windy it might be!

Date:

Astronomy

Jul. 25, 2013 Rise Set
Actual Time 6:41 AM EDT 8:11 PM EDT
Civil Twilight 6:16 AM EDT 8:37 PM EDT
Nautical Twilight 5:46 AM EDT 9:07 PM EDT
Astronomical Twilight 5:14 AM EDT 9:38 PM EDT
Moon 10:19 PM EDT (7/25) 9:44 AM EDT (7/25)
Length of Visible Light 14h 20m
Length of Day
13h 30m
Waning Gibbous, 88% of the Moon is Illuminated
Jul 25
Waning Gibbous
Jul 29
Last Quarter
Aug 6
New
Aug 14
First Quarter
Aug 20
Full

Hourly Weather History & Observations

Time (EDT) Temp. Heat Index Dew Point Humidity Pressure Visibility Wind Dir Wind Speed Gust Speed Precip Events Conditions
12:53 AM 81.0 °F 84.4 °F 70.0 °F 69% 29.96 in 10.0 mi WSW 5.8 mph - N/A   Scattered Clouds
1:53 AM 80.1 °F 83.6 °F 71.1 °F 74% 29.95 in 10.0 mi WSW 5.8 mph - N/A   Mostly Cloudy
2:53 AM 79.0 °F - 71.1 °F 77% 29.94 in 10.0 mi WSW 5.8 mph - N/A   Mostly Cloudy
3:53 AM 78.1 °F - 71.1 °F 79% 29.92 in 10.0 mi WSW 5.8 mph - N/A   Scattered Clouds
4:53 AM 78.1 °F - 71.1 °F 79% 29.92 in 10.0 mi WSW 4.6 mph - N/A   Scattered Clouds
5:53 AM 78.1 °F - 71.1 °F 79% 29.92 in 10.0 mi West 5.8 mph - N/A   Scattered Clouds
6:53 AM 78.1 °F - 71.1 °F 79% 29.94 in 10.0 mi WSW 9.2 mph - N/A   Mostly Cloudy
7:53 AM 80.1 °F 83.8 °F 72.0 °F 76% 29.96 in 10.0 mi SW 6.9 mph - N/A   Mostly Cloudy
8:53 AM 84.0 °F 89.0 °F 71.1 °F 65% 29.97 in 10.0 mi WSW 8.1 mph - N/A   Mostly Cloudy
9:53 AM 86.0 °F 91.5 °F 71.1 °F 61% 29.99 in 10.0 mi West 12.7 mph - N/A   Mostly Cloudy
10:53 AM 87.1 °F 93.6 °F 72.0 °F 61% 30.00 in 10.0 mi West 16.1 mph - N/A   Mostly Cloudy
11:53 AM 89.1 °F 95.0 °F 71.1 °F 55% 30.01 in 10.0 mi West 12.7 mph - N/A   Mostly Cloudy
12:53 PM 90.0 °F 97.9 °F 73.0 °F 57% 30.00 in 10.0 mi West 10.4 mph - N/A   Mostly Cloudy
1:53 PM 91.0 °F 98.2 °F 72.0 °F 53% 29.98 in 10.0 mi West 8.1 mph - N/A   Mostly Cloudy
2:53 PM 93.0 °F 100.7 °F 72.0 °F 50% 29.98 in 10.0 mi West 11.5 mph - N/A   Mostly Cloudy
3:53 PM 91.9 °F 98.4 °F 71.1 °F 50% 29.97 in 10.0 mi West 13.8 mph 20.7 mph N/A   Scattered Clouds
4:53 PM 93.0 °F 100.1 °F 71.1 °F 49% 29.97 in 10.0 mi West 10.4 mph - N/A   Scattered Clouds
5:53 PM 91.0 °F 97.6 °F 71.1 °F 52% 29.97 in 10.0 mi West 8.1 mph - N/A   Mostly Cloudy
6:53 PM 89.1 °F 96.0 °F 72.0 °F 57% 29.97 in 10.0 mi WSW 6.9 mph - N/A   Mostly Cloudy
7:53 PM 88.0 °F 94.7 °F 72.0 °F 59% 29.98 in 10.0 mi WSW 4.6 mph - N/A   Mostly Cloudy
8:53 PM 88.0 °F 94.7 °F 72.0 °F 59% 29.98 in 10.0 mi West 6.9 mph - N/A   Mostly Cloudy
9:53 PM 86.0 °F 91.5 °F 71.1 °F 61% 29.99 in 10.0 mi West 9.2 mph - N/A   Mostly Cloudy
10:53 PM 84.9 °F 90.1 °F 71.1 °F 63% 30.00 in 10.0 mi WSW 9.2 mph - N/A   Mostly Cloudy
11:53 PM 84.0 °F 89.6 °F 72.0 °F 67% 30.01 in 10.0 mi WSW 8.1 mph - N/A   Mostly Cloudy